sat.trackr.live / text

‹ back to catalog

STARLINK-11516 [DTC]

NORAD 62522 · 2025-004M

PAYLOAD ACTIVE UNKNOWN

§ Identity

Operator
Country
US
Launch date
2025-01-08
Launch site
AFETR
Launch vehicle
Mass (kg)
RCS (m²)

Purposes: comms

External: N2YO · Heavens-Above · Gunter

§ Orbital elements

Epoch: 2026-05-25T04:55:58.664640Z

Period
91.67 min
Inclination
43.0003°
Eccentricity
0.0000968
Mean motion
15.70894408 rev/d
Perigee alt
355.7 km
Apogee alt
357.0 km
Semi-major
6,734.5 km
B*
1.8056e-3
RAAN
329.4113°
Arg perigee
329.1280°
Mean anomaly
30.9531°
Rev number
7,924

§ Raw data

STARLINK-11516 [DTC]1 62522U 25004M   26145.20554010  .00238556  00000+0  18056-2 0  99932 62522  43.0003 329.4113 0000968 329.1280  30.9531 15.70894408 79249

JSON: /api/v1/satellites/62522 · /tle

For live sub-satellite position, see the globe view (requires WebGL).

§ Visibility from observer

Set your observer location to see the next 7 days of passes ≥ 10°. The values pass through the URL so the page stays shareable.

No JS? Fill the form by hand. The geolocation button needs JavaScript.